Weather History for KBED - June, 2012

Change the Weather History Date:

Wednesday, June 6, 2012

  Actual Average Record
Temperature  
Mean Temperature 55 °F -  
Max Temperature 64 °F 71 °F 93 °F (1968)
Min Temperature 46 °F 50 °F 35 °F (1964)
Degree Days  
Heating Degree Days 10    
Growing Degree Days 5 (Base 50)    
Moisture  
Dew Point 49 °F    
Average Humidity 86    
Maximum Humidity 100    
Minimum Humidity 59    
Precipitation  
Precipitation 0.00 in - - ()
Sea Level Pressure  
Sea Level Pressure 29.97 in    
Wind  
Wind Speed 2 mph (SE)    
Max Wind Speed 12 mph    
Max Gust Speed -    
Visibility 7 miles    
Events Fog , Rain    
Averages and records for this station are not official NWS values.
T = Trace of Precipitation, MM = Missing Value Source: NWS Daily Summary

Daily Weather History Graph

Daily Weather History Graph

Search for Another Location

Airport or City:

Trip Planner

Search our weather history database for the weather conditions in past years. The results will help you decide how hot, cold, wet, or windy it might be!

Date:

Astronomy

Jun. 06, 2012 Rise Set
Actual Time 5:08 AM EDT 8:19 PM EDT
Civil Twilight 4:34 AM EDT 8:54 PM EDT
Nautical Twilight 3:49 AM EDT 9:38 PM EDT
Astronomical Twilight 2:56 AM EDT 10:32 PM EDT
Moon 10:26 PM EDT (6/6) 7:27 AM EDT (6/6)
Length of Visible Light 16h 20m
Length of Day
15h 11m
Waning Gibbous, 93% of the Moon is Illuminated
Jun 6
Waning Gibbous
Jun 11
Last Quarter
Jun 19
New
Jun 26
First Quarter
Jul 3
Full

Hourly Weather History & Observations

Time (EDT) Temp. Windchill Dew Point Humidity Pressure Visibility Wind Dir Wind Speed Gust Speed Precip Events Conditions
12:56 AM 50.0 °F - 48.9 °F 96% 29.98 in 10.0 mi Calm Calm - 0.00 in   Overcast
1:56 AM 48.9 °F - 48.0 °F 97% 29.97 in 4.0 mi Calm Calm - N/A   Mostly Cloudy
2:07 AM 48.2 °F - 46.4 °F 93% 29.93 in 1.8 mi Calm Calm - N/A   Scattered Clouds
2:56 AM 46.4 °F - 46.4 °F 100% 29.92 in 0.2 mi Calm Calm - N/A Fog Fog
3:14 AM 46.4 °F - 46.4 °F 100% 29.92 in 0.2 mi Calm Calm - N/A Fog Fog
3:30 AM 46.4 °F - 44.6 °F 93% 29.93 in 0.2 mi Calm Calm - N/A Fog Fog
3:44 AM 46.4 °F - 44.6 °F 93% 29.93 in 0.5 mi Calm Calm - N/A Fog Fog
3:56 AM 46.0 °F - 46.0 °F 100% 29.97 in 0.5 mi Calm Calm - N/A Fog Fog
4:05 AM 46.4 °F - 44.6 °F 93% 29.93 in 0.2 mi Calm Calm - N/A Fog Fog
4:16 AM 46.4 °F - 44.6 °F 93% 29.93 in 0.2 mi Calm Calm - N/A Fog Fog
4:28 AM 46.4 °F - 44.6 °F 93% 29.94 in 0.5 mi Calm Calm - N/A Fog Fog
4:43 AM 46.4 °F - 44.6 °F 93% 29.94 in 1.0 mi Calm Calm - N/A   Overcast
4:56 AM 46.9 °F - 46.0 °F 97% 29.99 in 1.0 mi Calm Calm - N/A   Overcast
5:03 AM 46.4 °F - 46.4 °F 100% 29.95 in 3.0 mi Calm Calm - N/A   Overcast
5:08 AM 46.4 °F - 46.4 °F 100% 29.95 in 1.8 mi Calm Calm - N/A   Overcast
5:19 AM 46.4 °F 45.2 °F 46.4 °F 100% 29.94 in 3.0 mi Variable 3.5 mph - N/A   Overcast
5:56 AM 46.4 °F - 46.4 °F 100% 29.95 in 6.0 mi Calm Calm - N/A   Overcast
6:56 AM 50.0 °F - 48.2 °F 94% 29.96 in 9.0 mi Calm Calm - N/A   Overcast
7:34 AM 51.8 °F - 50.0 °F 94% 29.96 in 10.0 mi Calm Calm - N/A   Overcast
7:56 AM 52.0 °F - 51.1 °F 97% 30.01 in 10.0 mi NNW 3.5 mph - N/A   Overcast
8:56 AM 55.9 °F - 51.1 °F 84% 30.02 in 10.0 mi NE 4.6 mph - N/A   Overcast
9:09 AM 57.2 °F - 51.8 °F 82% 29.98 in 10.0 mi ENE 5.8 mph - N/A   Overcast
9:56 AM 57.9 °F - 51.1 °F 78% 30.03 in 10.0 mi East 4.6 mph - N/A   Overcast
10:36 AM 59.0 °F - 48.2 °F 67% 29.99 in 10.0 mi Calm Calm - N/A   Overcast
10:56 AM 57.9 °F - 48.9 °F 72% 30.03 in 10.0 mi SE 3.5 mph - N/A   Overcast
11:11 AM 59.0 °F - 50.0 °F 72% 29.98 in 10.0 mi SE 3.5 mph - N/A   Overcast
11:48 AM 60.8 °F - 50.0 °F 68% 29.98 in 10.0 mi Variable 3.5 mph - N/A   Overcast
11:56 AM 62.1 °F - 51.1 °F 67% 30.01 in 10.0 mi East 6.9 mph - N/A   Overcast
12:56 PM 64.0 °F - 52.0 °F 65% 30.01 in 10.0 mi ESE 6.9 mph - N/A   Mostly Cloudy
1:56 PM 64.0 °F - 50.0 °F 60% 29.99 in 10.0 mi East 3.5 mph - N/A   Mostly Cloudy
2:56 PM 63.0 °F - 48.9 °F 60% 29.99 in 10.0 mi SE 8.1 mph - N/A   Overcast
3:56 PM 60.1 °F - 50.0 °F 69% 29.99 in 10.0 mi ESE 11.5 mph - 0.00 in Rain Light Rain
4:56 PM 62.6 °F - 48.2 °F 59% 29.95 in 10.0 mi South 6.9 mph - N/A   Overcast
5:56 PM 60.8 °F - 51.8 °F 72% 29.95 in 10.0 mi South 9.2 mph - N/A   Mostly Cloudy
6:56 PM 59.0 °F - 51.1 °F 75% 29.99 in 10.0 mi SSW 4.6 mph - N/A   Mostly Cloudy
7:56 PM 57.0 °F - 52.0 °F 83% 30.01 in 10.0 mi South 4.6 mph - N/A   Scattered Clouds
8:56 PM 57.0 °F - 52.0 °F 83% 30.02 in 10.0 mi South 3.5 mph - N/A   Overcast
9:56 PM 54.0 °F - 52.0 °F 93% 30.03 in 10.0 mi South 3.5 mph - N/A   Overcast
10:56 PM 53.1 °F - 51.1 °F 93% 30.01 in 10.0 mi SW 4.6 mph - N/A   Mostly Cloudy
11:56 PM 53.1 °F - 52.0 °F 96% 30.02 in 10.0 mi Calm Calm - N/A   Overcast